Theta_e
350 352 353 353 352 353 354 354 354 354 353 352 352 350 349 348 347 347 346 346 344 342 340 339 339 340 343 344 344 345 345 345 346 347 349 350 350 349 349 350 350 350 351 350 351 352 352 352 352 352 352 352 353 353 353 354 354 354 353 351 349 350 350 351 351 351 352 351 349 350 350 350 350 350 350 349 349 348 346 343 343 345 345 342 342
351 352 353 353 353 354 354 355 353 353 352 352 351 348 347 347 347 348 346 342 341 341 342 343 344 346 348 347 347 347 348 349 349 351 352 352 352 352 351 351 352 352 351 350 351 351 352 352 353 352 352 353 352 353 352 352 353 353 353 351 351 351 350 351 351 351 352 352 351 351 351 350 350 350 349 349 349 348 345 344 345 346 342 337 338
350 351 351 353 354 354 354 355 353 352 351 351 350 346 346 346 346 345 341 341 344 346 347 347 348 348 349 349 349 349 349 350 351 352 353 351 351 351 351 351 351 352 351 351 352 352 353 353 352 352 352 352 352 351 351 351 351 352 353 352 351 352 351 351 351 352 353 352 352 350 351 351 350 350 349 349 349 347 345 343 342 342 338 335 338
351 350 350 352 353 354 354 355 352 351 350 349 346 345 345 345 344 341 342 346 349 350 350 348 348 349 350 350 350 351 351 351 351 352 351 350 350 351 351 351 350 351 352 352 352 353 353 352 351 351 352 353 353 351 350 351 350 350 352 352 351 351 351 351 351 352 352 352 351 350 351 351 351 350 349 349 349 347 346 344 339 338 336 337 340
351 351 350 351 352 354 355 354 352 349 347 346 344 344 344 343 341 342 347 351 350 350 349 348 349 350 351 351 351 352 351 352 351 351 352 351 351 351 351 351 351 352 352 351 352 352 352 351 351 352 352 352 352 350 349 350 350 351 352 352 351 351 351 351 351 351 350 351 352 352 351 351 351 351 350 349 349 346 345 344 341 337 336 338 340
351 350 351 351 351 353 354 354 351 347 345 343 344 344 343 342 343 345 350 351 350 350 349 350 350 350 350 350 351 352 353 352 352 352 352 352 352 352 351 351 352 351 350 350 351 350 350 351 352 352 352 352 352 350 348 350 351 351 351 351 351 352 351 350 351 350 348 349 352 352 352 351 351 351 350 349 347 345 344 344 342 338 337 339 341
352 351 352 352 352 353 352 353 351 348 346 346 346 344 342 344 346 348 351 350 349 350 350 350 350 349 350 350 351 352 353 352 352 352 352 352 351 351 351 351 351 350 349 349 351 350 349 351 351 350 350 351 351 350 350 350 351 351 351 351 351 351 351 349 349 348 347 348 351 353 353 351 350 351 350 348 346 345 344 344 342 339 337 339 342
352 352 351 351 352 351 350 352 351 349 348 346 347 344 343 346 348 350 351 349 350 350 351 350 350 350 350 352 352 353 353 352 352 352 352 351 350 350 350 350 350 350 349 349 350 350 349 350 350 350 350 350 350 350 350 351 351 351 350 349 349 349 349 349 347 347 346 348 350 352 352 351 350 350 349 348 347 346 345 344 342 338 337 339 343
352 352 351 351 351 350 350 351 350 349 346 343 345 344 344 348 348 349 350 349 350 351 351 351 352 351 352 353 353 352 352 351 350 351 351 350 350 351 350 350 350 349 348 349 350 349 348 349 350 349 350 349 348 349 349 349 349 350 348 348 349 348 348 348 347 346 348 348 349 350 349 350 350 349 348 347 347 347 346 345 344 339 335 338 343
353 352 352 351 351 351 351 350 348 345 341 339 342 344 345 348 348 349 350 350 350 350 351 352 352 353 353 353 353 352 350 349 349 350 351 350 351 351 350 350 350 349 349 350 350 348 347 349 351 350 349 348 348 348 348 349 348 347 347 348 349 348 348 346 347 348 350 350 349 348 348 349 350 349 348 347 346 346 346 345 343 339 336 338 342
353 353 352 350 351 352 350 348 344 338 337 338 342 345 347 348 348 349 350 352 351 351 352 352 353 353 353 352 353 352 348 347 349 350 350 350 351 350 350 351 350 350 351 351 351 349 347 349 350 350 349 347 348 347 348 349 348 347 347 347 348 347 346 345 348 350 349 349 349 348 348 349 349 349 347 347 347 346 345 342 338 334 336 339 342
353 354 352 348 348 349 348 344 337 336 340 342 345 347 348 349 349 350 351 352 352 352 352 353 353 353 352 352 352 351 348 347 349 349 349 349 350 350 349 350 351 350 350 351 351 350 349 349 350 349 348 348 348 347 348 350 348 348 347 347 348 346 346 346 349 350 348 348 348 348 348 349 348 348 347 347 345 344 341 337 332 332 336 340 342
353 353 352 348 348 347 345 341 337 341 345 345 347 348 349 349 349 350 351 352 352 351 351 353 354 353 352 351 352 351 348 348 349 350 349 350 349 349 350 350 350 350 350 350 350 350 350 349 349 349 349 349 348 347 348 349 348 348 347 347 346 345 347 348 348 348 348 346 346 347 347 348 346 345 344 343 340 337 334 331 330 333 337 341 342
352 352 352 350 348 346 344 342 342 346 347 348 348 349 349 349 349 350 351 352 352 351 352 353 353 353 352 351 352 351 349 349 350 350 351 351 350 350 351 351 350 350 350 350 349 349 349 349 349 349 349 349 349 349 349 348 348 348 348 347 346 346 347 348 347 347 346 345 345 346 346 346 342 341 340 338 336 333 330 330 331 335 339 341 343
351 351 351 350 348 346 344 342 345 347 348 348 349 349 350 349 350 351 351 352 352 352 352 353 352 353 352 352 352 351 351 351 351 351 350 350 349 350 351 350 350 350 350 349 349 349 349 348 348 349 349 349 349 349 349 348 348 349 349 347 346 346 347 348 348 346 345 344 345 346 346 343 340 339 338 337 335 334 334 335 336 339 340 342 343
352 350 350 350 350 348 345 343 346 348 348 349 349 350 350 351 351 351 351 351 351 352 352 351 352 352 352 352 352 352 352 351 350 349 350 349 349 349 349 349 350 350 349 349 349 349 349 349 348 348 348 349 349 349 348 347 347 349 348 346 345 345 346 347 347 346 345 344 345 346 346 343 339 339 338 337 337 338 338 340 341 341 341 342 343
352 350 351 352 351 352 349 347 346 348 349 350 350 351 352 352 352 352 351 351 351 351 350 351 352 352 351 351 352 351 351 352 351 350 349 348 349 349 349 350 350 350 348 349 350 350 349 349 349 348 348 348 348 349 349 348 349 348 347 345 345 345 345 346 346 346 344 342 345 347 346 343 340 340 340 339 340 341 341 342 342 342 342 342 342
351 351 352 352 352 353 351 349 347 348 350 350 352 353 353 353 353 352 351 350 351 350 350 350 351 352 351 351 351 350 351 351 351 351 349 347 348 349 351 351 350 351 349 348 349 350 349 349 350 349 348 348 349 349 349 349 349 348 347 346 346 345 344 345 346 345 344 343 346 347 346 343 342 342 342 342 343 343 344 344 344 343 343 342 342
352 352 353 352 353 353 350 348 348 350 351 352 353 354 353 353 352 351 351 351 351 350 349 350 351 351 350 350 351 350 352 351 350 350 349 349 349 350 351 351 350 349 349 348 348 349 350 350 350 350 349 349 350 349 349 349 349 349 349 348 346 345 345 346 346 346 346 346 347 347 344 343 344 345 345 345 346 345 346 346 345 345 344 343 343
352 352 353 353 353 352 349 347 348 352 352 352 353 353 353 352 351 350 352 352 351 351 350 351 352 351 351 350 350 350 350 349 349 349 348 349 350 350 350 349 348 347 347 347 347 347 349 349 350 350 350 350 349 348 348 348 349 349 349 346 344 345 346 347 347 347 347 346 347 346 343 343 345 346 347 346 346 346 347 346 345 345 344 343 343
352 352 353 353 353 351 349 348 348 351 351 352 351 353 354 353 352 350 351 352 352 352 351 352 352 352 351 349 348 348 349 348 348 348 348 349 350 350 349 348 347 345 345 346 347 347 347 348 349 350 349 348 348 347 347 347 347 348 345 342 343 346 347 347 347 347 347 346 347 345 342 344 345 346 347 347 347 346 345 345 345 345 345 344 343
352 352 352 352 353 351 350 349 349 350 351 352 352 353 354 352 352 351 351 352 352 352 352 352 352 350 349 348 347 348 348 348 348 348 348 349 350 350 349 348 347 346 345 346 347 348 348 348 349 349 349 349 348 348 349 348 346 345 342 342 344 345 345 346 346 347 346 346 346 344 344 345 345 346 346 347 347 347 346 345 345 344 344 344 343
352 352 352 351 352 351 350 351 349 350 352 352 352 352 352 352 352 351 351 352 351 350 350 351 351 349 348 348 348 348 348 348 348 348 348 349 350 349 349 349 348 347 346 347 347 348 349 348 348 348 349 350 349 350 351 349 346 344 344 345 346 345 345 346 346 347 346 346 346 344 345 346 346 346 346 347 347 347 346 345 344 345 345 344 344
352 351 352 351 352 351 351 351 348 349 352 352 352 351 352 353 352 351 351 352 351 350 350 350 350 348 348 348 348 349 349 349 348 347 347 348 349 348 348 348 348 347 345 347 347 347 348 347 347 348 349 350 350 350 350 349 348 347 347 347 346 344 345 346 346 347 346 346 345 344 345 346 346 347 347 347 348 347 345 344 345 345 344 344 344
352 351 352 352 352 352 351 350 347 349 352 352 352 352 352 353 351 352 351 351 350 350 350 350 350 348 348 348 348 349 349 349 348 348 347 348 349 348 348 347 347 346 344 347 348 347 350 350 349 349 349 350 350 350 350 350 350 349 348 347 346 345 344 345 345 346 345 346 345 344 345 345 346 347 348 348 348 348 346 344 344 344 345 345 345
351 351 351 352 352 351 352 350 347 349 351 352 352 352 351 352 352 352 352 351 351 350 350 349 348 348 348 349 348 349 348 348 348 349 348 348 348 348 348 347 347 345 345 347 347 347 349 350 350 350 350 351 351 350 350 350 350 350 348 346 346 346 344 342 344 345 345 346 344 343 344 345 346 347 347 347 347 347 346 345 345 345 345 345 345
351 350 351 352 352 352 351 349 349 350 351 352 353 352 352 352 351 351 352 352 350 350 350 348 348 348 348 348 348 349 349 348 348 348 347 347 347 346 346 346 348 347 346 347 347 347 349 349 349 349 350 351 351 350 350 349 349 350 348 347 346 347 346 341 340 343 344 344 344 342 343 344 344 345 346 347 346 346 345 345 345 346 345 346 345
350 350 351 351 351 350 350 349 350 351 350 351 352 352 353 352 351 351 352 351 351 351 350 348 348 348 348 347 348 349 349 349 348 347 347 346 344 345 345 346 349 349 348 349 349 349 349 349 349 349 350 351 350 349 349 349 349 350 349 348 347 346 347 344 337 336 342 343 343 341 340 342 343 344 345 345 347 346 345 345 345 346 346 345 345
350 350 350 351 351 350 350 351 352 351 350 351 351 352 352 351 351 351 351 350 350 351 349 349 348 348 348 347 348 350 350 350 348 347 346 345 344 345 346 347 349 349 349 350 348 349 349 349 349 350 350 351 351 350 349 350 349 350 349 348 348 347 346 346 338 334 339 341 343 340 335 338 340 340 342 344 346 347 347 345 344 345 345 345 346
349 350 349 350 351 349 350 352 352 352 350 351 351 352 352 351 352 351 350 350 350 350 349 349 349 349 348 347 349 348 349 350 348 347 346 345 345 347 347 348 348 347 350 349 347 348 349 349 349 351 352 351 351 350 349 350 350 349 349 348 349 349 347 347 343 338 339 339 341 340 334 333 334 335 338 340 343 345 346 346 345 345 345 345 345
348 349 349 350 350 349 350 352 352 352 351 351 351 351 351 351 352 351 350 350 350 350 350 350 350 350 349 348 348 346 345 347 346 345 346 347 348 349 348 348 348 347 348 349 348 347 348 348 348 350 350 350 349 349 349 350 350 349 349 348 348 349 348 347 347 344 342 341 340 341 338 334 332 333 334 336 338 340 342 343 344 345 345 345 345
349 349 350 350 350 350 351 352 352 352 352 351 351 351 351 350 351 351 350 350 349 350 350 350 349 349 349 349 349 346 345 345 344 345 346 347 349 350 349 348 349 348 347 347 348 348 347 348 348 348 348 348 350 349 348 350 351 349 349 349 348 348 348 347 348 347 344 341 338 339 340 340 338 335 334 335 336 336 337 337 339 340 340 341 342
349 350 350 350 350 351 351 352 352 352 352 351 351 351 352 351 351 351 351 351 349 349 350 349 348 349 348 348 349 348 347 346 347 347 347 348 349 350 350 349 349 349 348 347 348 348 349 350 349 350 349 350 351 350 349 350 350 348 348 349 348 348 347 347 349 349 346 344 341 339 340 341 341 340 338 336 337 337 337 336 337 337 338 338 339
350 350 350 351 351 351 351 351 351 352 351 351 351 351 352 351 351 351 351 351 350 349 349 349 348 348 348 347 347 348 349 348 348 348 348 349 348 348 349 349 348 349 349 348 349 349 349 351 350 351 351 350 351 350 350 351 348 347 348 349 349 348 346 348 349 348 348 346 343 341 341 341 341 341 341 339 338 338 339 339 339 339 339 341 343
351 351 350 351 351 351 351 351 351 351 351 351 351 351 352 352 352 351 351 351 349 349 349 350 349 348 348 348 348 348 350 349 349 349 348 348 348 348 348 348 348 349 350 348 349 351 351 351 350 351 352 351 350 349 349 349 347 346 346 347 349 347 346 348 348 348 348 347 345 343 343 342 341 342 342 342 342 341 340 341 340 340 341 343 345
351 351 351 351 352 352 351 351 351 351 351 351 351 351 351 352 351 351 351 351 350 348 348 350 350 350 349 349 348 348 350 349 349 349 348 347 348 349 348 347 348 348 350 349 351 353 352 351 350 350 352 352 351 349 348 346 345 344 344 346 347 347 347 349 348 349 349 347 346 346 344 344 343 342 342 344 344 344 343 343 343 343 342 343 344
350 351 350 350 352 352 351 351 351 351 351 351 351 351 351 351 350 350 350 350 349 349 348 348 350 350 350 349 348 348 349 349 349 349 348 348 348 348 348 348 348 349 349 350 352 352 351 353 351 349 350 352 351 349 348 346 343 343 344 346 347 346 348 349 348 349 348 346 347 347 348 346 345 345 345 345 346 345 345 345 345 345 345 345 344
350 350 350 349 351 351 350 350 351 351 351 351 350 350 349 349 348 349 348 348 349 351 350 348 350 351 351 349 348 348 348 348 348 348 348 349 348 348 349 348 348 349 349 351 352 351 351 353 353 350 348 350 352 350 348 346 344 344 346 346 345 345 347 347 346 347 347 348 348 348 347 347 346 346 345 346 346 345 345 345 345 345 346 346 346
350 350 350 349 350 351 349 348 349 350 349 350 349 349 349 348 348 349 348 347 349 350 350 348 349 351 351 349 348 348 348 348 348 348 349 348 349 349 349 349 350 350 350 351 353 352 352 353 353 353 349 349 350 350 348 345 345 346 347 346 345 345 346 345 345 346 346 348 348 347 348 347 346 345 345 345 346 346 345 345 345 345 345 345 345
349 350 351 350 350 350 349 348 347 348 349 350 350 350 350 350 350 351 350 350 350 350 349 349 349 350 349 348 347 348 349 349 348 348 349 349 349 350 350 350 351 351 351 352 354 353 353 353 353 353 353 350 348 347 347 345 346 347 346 346 345 344 345 345 346 346 347 347 348 347 348 348 346 345 345 345 345 345 345 345 345 345 345 344 344
350 350 351 351 350 349 348 348 347 347 348 350 351 350 351 351 351 352 352 352 352 350 350 350 350 350 348 347 348 348 349 349 349 349 350 351 350 350 350 350 351 351 352 353 353 353 353 352 352 352 352 352 349 346 346 345 347 346 347 347 346 346 345 346 347 347 348 348 349 347 347 348 348 347 346 345 344 344 344 343 344 344 344 344 344
350 351 351 351 351 350 348 348 347 346 346 348 350 351 352 351 352 352 352 353 352 351 352 351 350 351 348 347 348 348 349 350 350 350 351 351 350 350 350 350 350 350 350 350 350 352 353 352 353 354 352 350 349 347 345 346 346 346 347 347 347 347 347 348 348 348 348 348 348 348 347 347 349 349 346 345 344 343 343 343 343 343 343 343 343
351 350 351 352 352 352 351 349 346 345 346 346 347 350 350 350 350 351 351 353 352 350 352 350 350 351 349 348 349 349 349 350 351 352 352 351 350 351 350 351 351 350 350 350 349 351 351 351 353 355 353 350 348 345 344 345 345 347 347 346 347 347 347 348 348 346 346 346 347 348 348 348 348 348 345 343 344 343 344 343 342 343 342 343 342
351 351 351 352 352 353 352 349 346 345 345 344 345 348 348 346 347 347 347 350 350 347 348 348 349 350 350 349 349 349 349 349 351 352 353 352 351 351 351 351 352 351 350 350 350 351 351 351 352 354 353 350 348 346 345 345 345 347 348 347 348 348 347 347 347 346 345 345 346 346 346 346 347 346 343 344 344 343 343 343 343 343 342 343 342
351 351 351 352 353 353 352 349 347 347 346 344 345 348 348 348 350 350 350 351 350 349 349 351 351 350 351 351 349 349 350 350 351 352 353 353 351 352 351 351 351 352 351 351 352 351 350 351 352 353 353 351 349 348 347 346 345 345 347 348 348 348 347 346 346 346 345 344 344 345 344 345 346 345 342 342 344 342 342 343 342 342 342 342 342
351 352 352 352 352 353 351 351 350 350 348 346 347 348 349 351 353 354 353 353 354 353 352 353 353 351 352 352 349 349 350 350 352 352 352 352 352 352 351 351 351 351 351 352 352 350 350 351 351 353 354 350 350 349 347 346 346 344 345 347 347 347 348 347 347 348 347 345 344 344 345 345 346 344 343 343 343 342 342 342 341 342 342 342 342
350 351 352 351 352 352 351 351 351 351 351 350 349 349 350 351 352 354 354 355 355 354 351 351 352 350 350 351 348 349 351 352 352 352 352 352 352 353 352 352 351 350 351 352 353 353 352 353 352 353 353 349 350 352 350 348 347 346 347 348 347 346 347 347 347 346 348 347 346 345 344 345 346 346 346 345 345 343 342 341 342 341 342 342 342
350 350 351 351 352 351 350 350 351 351 351 351 351 350 350 350 351 353 354 354 354 353 350 349 351 349 349 350 348 349 352 354 354 352 352 351 351 352 352 352 351 350 351 352 355 355 354 352 351 351 352 349 349 352 353 352 349 348 349 350 349 346 346 347 347 346 347 347 347 346 345 345 346 346 347 347 347 345 343 343 342 341 341 342 343
349 350 351 351 352 351 350 351 351 351 351 351 351 351 350 349 350 352 353 353 353 352 349 348 350 349 349 349 348 349 351 354 354 352 351 350 350 351 351 352 352 350 352 354 356 354 353 353 352 353 353 352 350 350 353 354 350 348 351 353 352 349 347 347 346 346 346 347 348 346 346 347 346 346 348 348 347 346 345 344 343 343 343 345 346
349 350 350 351 352 352 351 350 351 351 351 351 351 351 351 350 351 351 352 352 352 351 350 349 349 349 349 349 348 348 349 351 352 353 351 348 348 349 350 352 353 352 354 355 355 353 353 354 353 354 355 355 353 351 354 355 352 350 352 355 355 351 349 348 346 346 347 349 349 347 346 347 346 347 349 347 347 347 345 344 346 346 346 347 346
349 350 350 351 351 352 352 351 351 351 351 352 351 352 351 351 351 350 350 351 351 351 350 350 349 349 350 350 349 348 348 350 351 352 351 349 347 347 349 350 353 354 355 355 355 356 357 356 356 355 355 355 355 354 355 355 353 353 353 355 355 352 351 350 349 350 351 351 351 349 348 349 348 349 349 347 346 345 345 346 348 348 348 348 347
Wind_Speed
13 14 14 15 18 19 20 20 19 20 21 21 21 21 21 20 19 18 17 16 15 15 15 15 15 15 15 14 13 13 13 12 12 12 12 11 11 11 10 10 9 8 8 10 10 10 10 11 11 12 12 12 12 13 13 13 13 13 15 16 15 14 14 15 15 15 17 15 14 17 17 16 16 16 17 18 18 18 19 20 19 18 18 17 17
13 15 16 16 17 18 19 18 18 18 19 19 20 20 20 19 18 17 16 15 16 16 17 17 16 16 15 14 14 13 13 12 12 12 12 11 12 11 11 11 10 8 8 9 10 10 10 11 12 12 12 12 12 13 13 13 12 12 13 15 14 14 14 14 14 15 16 16 15 16 16 16 16 17 17 18 18 18 19 20 19 17 18 17 17
15 15 17 18 17 16 17 17 18 18 18 19 19 19 19 17 16 15 16 17 17 17 17 16 15 15 14 13 13 12 12 12 12 12 12 12 12 12 11 13 13 11 9 9 9 10 11 12 12 10 11 13 14 14 14 13 13 12 12 13 14 14 14 14 14 14 16 16 15 16 17 16 15 17 17 17 18 18 18 20 20 19 18 17 17
14 14 17 20 18 17 17 17 18 18 19 19 19 18 17 16 14 15 16 17 16 16 15 15 15 14 13 13 12 12 12 12 12 12 12 12 12 12 12 13 14 13 10 10 10 10 11 11 12 10 10 14 15 14 13 13 14 13 11 12 14 14 13 13 13 14 15 16 16 17 16 15 16 16 17 17 17 18 18 19 20 19 18 17 17
13 13 15 18 18 19 17 16 17 17 18 18 17 16 15 15 14 15 16 16 15 15 15 15 14 13 13 12 12 12 12 12 12 13 13 13 12 13 13 13 14 13 11 11 11 10 11 11 11 10 11 15 15 13 12 13 14 14 12 12 13 13 13 13 14 14 16 16 16 16 14 15 16 16 16 17 17 18 19 19 20 19 18 17 16
14 13 13 14 16 19 18 17 17 17 17 17 16 15 15 14 15 16 16 15 15 14 14 14 13 13 13 13 13 12 12 13 13 13 14 14 13 13 14 13 14 14 12 12 12 11 11 10 11 10 11 14 15 13 11 13 15 14 13 13 13 13 13 13 14 15 16 16 15 15 14 14 16 16 16 17 18 18 19 19 19 18 17 16 16
15 14 14 14 14 17 20 17 17 16 16 16 15 15 15 15 15 16 15 15 14 14 13 13 13 13 13 13 12 12 12 13 14 14 15 14 13 13 14 14 14 14 14 13 12 12 11 11 12 10 11 13 14 13 11 12 14 14 14 14 14 14 14 14 14 14 15 16 15 14 14 14 16 17 16 17 18 18 18 18 18 17 16 16 16
15 14 15 17 16 18 20 17 16 16 16 16 15 15 15 15 15 15 15 14 13 13 13 13 13 13 13 12 12 12 13 13 14 14 15 15 13 12 14 15 13 14 15 13 12 11 12 12 12 12 12 13 13 13 11 12 14 14 14 14 15 15 15 15 14 15 15 16 15 14 14 15 16 17 16 17 17 17 17 18 18 16 16 16 15
16 15 15 16 18 20 19 17 16 16 16 15 15 15 15 15 15 15 14 13 12 12 12 13 13 12 12 12 12 13 15 13 12 13 14 14 14 13 14 14 12 13 15 14 11 11 12 13 12 12 13 14 14 13 10 11 13 14 15 15 15 15 15 15 14 15 15 15 16 16 16 16 16 17 17 17 17 17 16 16 16 15 15 15 15
16 15 15 15 18 20 18 16 15 15 15 15 15 15 15 15 15 14 13 12 12 12 12 12 12 11 11 12 14 15 15 11 10 13 14 14 14 14 14 13 13 14 14 13 11 11 12 12 12 12 12 13 15 15 11 10 12 14 16 15 15 15 14 14 14 14 16 16 17 18 17 17 16 16 16 16 16 16 15 15 15 14 14 15 14
16 15 15 17 19 18 16 15 14 14 14 15 15 15 15 14 14 13 12 12 12 11 11 12 12 11 11 12 15 17 13 10 11 13 13 13 13 14 14 13 13 14 13 13 12 12 12 13 13 13 13 12 14 15 12 9 12 15 16 15 14 15 14 14 14 15 16 16 17 17 16 16 15 15 15 15 15 15 14 14 14 14 14 14 13
14 13 13 17 18 15 14 12 13 14 14 14 15 15 14 13 13 12 12 11 11 11 11 12 11 11 11 13 16 16 11 11 13 13 13 13 13 14 15 13 14 14 13 13 13 14 14 14 14 14 14 14 13 14 13 11 12 14 15 14 14 14 14 14 14 15 16 15 15 15 15 15 15 15 14 14 14 14 13 13 13 14 14 14 13
13 12 13 16 15 13 13 12 14 14 14 14 15 15 13 13 12 12 12 11 11 11 11 11 11 11 11 13 15 14 12 12 13 13 13 13 14 15 15 14 14 14 14 13 14 16 16 15 15 15 15 15 14 14 13 12 13 14 15 14 14 14 14 14 14 14 15 15 15 15 15 15 15 14 14 14 13 13 13 13 14 14 13 13 12
17 15 15 15 15 14 13 14 15 14 14 14 14 14 13 12 12 12 11 11 10 11 11 11 11 11 11 13 15 14 13 13 12 12 13 13 13 14 14 14 13 14 14 14 15 16 16 15 16 15 15 15 15 14 13 13 14 13 14 14 14 14 14 14 14 14 14 15 15 15 15 15 14 14 13 13 13 13 14 14 13 13 12 12 12
19 18 16 17 16 15 14 15 14 14 14 14 14 13 12 12 11 11 11 10 10 10 10 10 11 11 11 12 14 14 13 13 13 12 13 13 13 13 13 13 13 14 14 14 15 16 16 15 16 16 15 15 15 14 14 15 14 13 13 14 13 13 13 13 13 14 14 15 15 15 14 14 14 13 13 13 13 13 13 13 12 12 12 12 11
18 18 17 17 17 16 15 14 14 14 14 14 13 12 12 11 11 11 10 10 10 10 9 10 11 11 11 11 13 14 14 14 14 13 13 13 13 14 14 14 14 14 14 15 15 16 15 15 16 15 15 15 15 14 14 15 13 12 12 13 12 12 13 13 14 14 13 15 15 14 14 13 13 13 12 12 12 12 12 12 12 11 11 11 11
18 17 16 16 17 16 15 14 13 13 13 13 12 12 12 10 10 10 10 10 10 10 10 10 11 11 11 11 12 13 13 14 14 14 13 13 13 14 14 14 14 14 14 14 14 15 15 15 15 14 15 16 15 14 14 13 12 12 12 12 12 13 13 13 14 13 13 15 15 13 12 12 12 12 11 11 11 11 11 11 11 11 11 11 10
17 17 16 17 16 15 14 14 13 13 12 12 12 11 11 10 10 9 9 10 10 10 10 11 10 11 11 12 12 12 13 13 14 14 13 13 13 14 14 14 14 13 14 13 14 14 14 15 14 15 16 16 14 13 14 13 13 13 12 11 12 12 12 13 13 13 13 14 13 12 12 11 11 11 10 10 10 10 10 10 10 10 9 9 9
17 16 15 16 15 15 14 13 13 12 12 12 11 10 10 10 9 9 9 9 10 10 10 10 10 11 12 12 12 12 13 13 14 14 13 13 13 13 13 14 14 13 13 12 13 13 14 15 15 16 17 15 13 14 14 14 14 13 11 11 11 11 11 12 12 12 12 12 12 11 11 11 10 9 9 9 9 9 9 9 9 8 8 8 8
16 15 14 14 14 14 14 13 13 11 11 11 11 11 10 9 9 9 9 9 10 10 10 10 11 11 11 12 12 12 12 13 14 13 13 12 12 12 12 14 14 13 13 12 12 12 13 15 16 16 16 15 15 15 15 15 14 11 10 10 11 11 10 10 10 11 11 11 11 11 10 9 9 8 7 7 8 8 7 8 8 7 7 7 7
15 14 13 13 13 14 13 12 12 10 11 10 10 11 10 9 10 9 9 9 9 10 10 10 11 11 11 11 12 12 13 13 13 13 12 12 12 12 12 14 14 13 12 11 11 12 13 15 16 16 16 15 16 16 16 15 13 10 9 10 11 10 9 9 9 9 10 10 10 10 9 8 7 7 6 6 7 7 7 7 8 7 7 6 6
14 13 12 12 12 13 12 11 11 10 11 10 10 10 9 10 10 9 9 9 9 9 9 10 10 11 11 11 12 12 12 12 12 12 12 12 12 12 13 13 13 13 12 10 10 12 13 15 15 16 16 14 14 14 13 12 10 9 10 10 10 9 9 9 8 8 8 8 8 9 8 7 6 6 5 6 6 6 7 7 8 7 6 6 6
14 13 12 12 12 13 11 10 10 10 10 10 10 9 9 9 9 9 9 9 9 9 9 9 9 10 10 11 11 11 12 12 11 12 12 13 12 12 12 13 13 12 11 9 9 12 13 14 14 14 13 12 13 12 10 9 9 9 11 10 9 9 8 8 7 7 6 6 7 7 7 6 5 5 4 4 5 5 6 6 7 6 6 6 6
14 12 12 11 11 12 11 9 10 10 9 10 9 9 8 8 8 9 9 9 8 8 8 8 9 9 10 10 11 10 11 12 11 12 12 13 12 12 12 12 12 11 11 9 9 11 12 11 11 11 10 10 11 10 9 8 8 9 10 10 10 9 7 7 6 6 5 5 5 5 5 5 4 5 3 3 4 4 5 6 6 5 5 5 5
14 12 11 11 11 11 10 9 10 10 9 9 9 9 8 8 8 8 9 8 8 7 7 7 8 8 9 9 10 10 10 11 11 11 12 12 11 11 10 10 11 10 10 9 8 9 8 7 7 8 8 8 8 8 7 7 7 8 9 10 10 9 7 5 5 5 4 4 3 3 3 3 3 3 3 2 3 3 4 5 5 5 4 4 4
14 13 12 11 11 10 10 10 10 10 9 8 8 8 8 8 8 8 8 8 7 7 7 7 7 8 8 9 10 10 10 10 10 10 10 11 10 10 10 9 10 10 9 8 7 6 6 6 5 6 6 6 6 6 6 7 7 8 9 10 10 10 7 5 4 3 3 3 2 1 1 2 2 2 1 1 2 2 3 4 5 4 4 4 3
14 14 13 11 11 10 10 10 11 10 9 9 9 8 8 8 8 7 8 7 7 7 7 7 7 7 7 8 9 9 10 10 9 9 9 10 10 10 9 9 9 9 8 7 6 5 5 5 5 4 4 4 4 5 6 7 8 8 9 10 10 9 8 6 4 3 3 2 1 0 0 0 0 1 1 1 1 2 2 3 4 4 3 4 3
15 14 13 12 12 11 11 11 11 11 10 9 9 8 8 8 8 7 7 7 7 7 7 7 7 7 7 8 8 9 9 9 9 8 8 9 9 9 9 8 8 7 6 6 5 5 5 4 4 4 4 4 4 5 5 6 7 8 8 9 9 8 8 6 5 4 2 2 1 1 1 1 2 1 1 0 1 2 2 2 3 3 4 4 4
16 15 14 13 13 12 12 11 11 11 11 10 9 8 8 8 8 7 7 7 7 7 7 7 7 7 6 7 7 8 8 8 8 8 8 8 8 8 7 7 6 5 5 5 5 5 4 4 4 4 4 4 4 5 5 5 6 6 6 8 8 7 7 6 6 4 2 2 1 2 2 0 2 2 2 2 1 2 2 3 3 3 4 4 4
16 15 15 14 13 13 13 11 11 11 11 11 9 8 8 8 8 7 7 7 7 7 7 7 6 6 6 6 6 7 8 7 7 7 7 7 7 6 6 5 4 4 5 4 4 4 4 4 4 5 5 5 5 5 5 5 5 5 6 6 6 5 5 5 5 4 3 2 2 2 3 2 0 1 2 3 3 2 3 3 3 4 4 4 4
17 16 16 15 14 14 13 12 11 10 11 11 10 9 9 9 8 8 8 7 7 7 6 6 6 6 6 6 6 7 7 7 7 7 6 6 5 4 4 4 4 3 4 4 3 3 3 4 4 4 5 5 5 5 5 5 5 5 5 5 5 4 5 5 5 4 3 3 3 3 3 2 2 1 1 2 2 3 3 3 3 3 3 4 4
17 17 16 14 14 14 14 13 12 11 11 11 10 9 9 10 9 8 8 7 7 7 6 6 6 5 5 6 6 6 7 7 6 6 5 4 3 3 3 3 3 2 2 2 2 3 3 3 3 4 5 5 4 5 5 5 4 4 4 4 4 4 4 5 4 3 3 4 4 3 3 3 3 2 2 1 1 2 2 2 3 3 4 4 4
16 17 16 15 15 15 14 13 12 12 11 11 10 9 9 9 9 9 8 7 7 7 6 6 6 5 5 5 5 5 5 6 5 4 3 2 1 1 1 1 1 1 1 1 1 2 2 3 3 3 4 4 4 5 5 5 5 4 3 3 3 3 4 4 4 3 4 3 4 4 4 4 4 5 4 4 3 3 3 3 3 4 4 5 5
15 16 17 16 15 15 14 14 13 13 12 11 10 9 9 8 8 8 8 7 7 7 7 7 6 5 5 4 4 4 4 5 4 3 2 1 1 1 1 1 0 1 1 1 1 1 2 2 2 3 4 4 4 5 5 5 5 4 3 2 2 3 3 3 3 3 4 3 4 4 4 4 4 5 5 5 5 5 4 5 5 5 6 6 6
16 16 17 16 16 15 15 14 14 14 13 12 10 9 9 9 8 8 7 7 7 8 7 6 6 5 5 4 3 3 3 3 3 2 2 2 2 2 2 1 1 2 1 1 1 1 1 2 2 2 3 4 4 5 5 6 5 3 2 2 2 2 2 2 3 3 4 4 4 5 4 4 5 5 5 6 6 6 6 6 6 7 7 7 7
17 17 17 16 16 16 16 15 15 15 13 12 11 10 9 9 8 8 8 7 8 8 8 7 6 5 4 3 3 3 2 2 2 1 1 2 2 3 2 2 2 2 1 1 1 1 1 2 2 2 3 4 4 4 5 7 5 2 1 1 2 2 3 3 3 3 4 4 4 5 5 5 5 5 5 6 6 7 7 7 7 8 8 8 8
18 18 18 18 17 17 17 15 15 16 14 13 11 10 9 9 9 9 8 8 8 8 8 8 6 6 5 4 4 3 3 2 1 1 0 1 2 2 2 2 2 2 1 1 0 1 1 2 2 1 2 3 4 3 5 6 5 2 1 2 3 4 4 4 5 4 5 6 6 6 6 6 6 6 6 6 6 7 7 7 7 8 9 9 9
19 20 20 20 18 17 18 17 16 16 14 13 11 10 10 10 10 10 10 10 9 8 8 8 7 6 6 6 5 4 4 3 3 2 1 2 2 2 2 2 2 1 1 1 1 1 1 2 2 2 2 3 3 3 4 5 5 3 2 3 4 5 5 5 6 6 6 6 7 7 7 6 6 6 6 6 7 8 8 8 8 8 9 9 9
18 19 20 20 19 18 19 19 18 17 15 13 11 10 10 10 11 11 11 11 10 9 9 9 8 7 7 6 5 5 4 4 4 4 3 3 2 2 2 2 2 1 1 1 0 0 1 2 3 2 2 2 2 2 3 4 4 3 2 2 3 4 4 5 5 6 6 6 6 7 7 7 8 7 7 8 8 8 9 9 9 10 10 9 9
18 19 20 20 21 20 20 20 20 19 16 13 12 11 11 10 10 10 10 11 11 11 10 10 9 9 8 7 6 5 4 4 4 4 4 3 3 3 3 3 3 2 1 0 0 0 1 3 3 2 2 2 2 2 3 2 2 2 2 2 2 3 3 4 4 5 6 6 7 7 7 7 9 9 9 9 9 9 10 10 10 10 10 10 9
18 19 20 21 22 22 22 22 21 21 18 16 14 13 12 12 11 11 10 10 11 12 11 11 10 9 10 9 7 6 5 4 4 5 4 4 4 4 4 4 3 3 2 1 2 2 1 2 3 2 2 1 1 2 2 1 1 2 2 2 3 4 4 4 4 4 5 5 6 8 8 8 9 9 10 10 10 9 10 10 10 10 10 10 10
19 20 21 21 22 22 22 23 23 22 21 19 17 15 13 13 12 11 10 9 11 12 11 11 11 10 11 10 9 8 6 5 5 5 5 5 5 5 5 4 4 3 2 2 3 2 1 1 2 2 2 2 2 1 0 0 2 2 3 3 4 3 2 3 4 3 4 4 4 6 8 8 7 8 10 10 10 10 9 9 9 9 9 9 10
20 21 22 21 21 22 22 23 24 24 23 22 20 18 15 15 13 12 11 9 11 12 11 12 12 11 11 11 10 9 8 7 6 6 6 6 6 5 4 4 3 3 2 2 3 3 2 1 1 2 2 2 2 2 3 2 2 1 2 3 4 4 2 4 5 4 3 3 4 5 6 7 7 8 10 10 10 10 10 10 10 10 10 10 10
20 21 21 21 21 21 23 25 26 25 24 24 23 21 19 17 15 14 13 11 12 14 13 13 12 12 12 12 12 10 9 9 8 7 7 6 6 5 4 3 3 3 3 3 3 3 3 2 1 1 1 1 1 2 4 3 3 2 2 2 2 2 3 6 8 4 2 3 3 4 5 7 7 9 12 11 10 11 11 11 10 10 10 10 11
21 21 21 21 20 21 24 26 26 26 25 25 24 23 21 18 14 13 13 12 12 13 13 12 13 13 13 12 12 11 10 9 8 8 8 7 6 5 4 3 3 3 3 3 3 3 3 2 1 1 1 1 1 1 2 3 4 3 2 1 2 2 3 7 7 4 4 3 2 4 6 7 7 10 12 10 10 11 10 10 10 10 10 10 11
22 22 22 22 22 23 25 27 26 26 26 26 25 24 23 19 15 14 13 13 12 12 14 14 13 14 12 11 12 10 9 9 8 9 8 8 7 6 5 3 3 4 3 3 4 4 3 2 2 2 1 0 1 1 0 1 3 3 2 1 2 2 4 6 5 3 4 4 4 5 5 7 8 9 10 9 9 10 10 10 9 9 9 10 11
22 22 22 23 23 25 27 28 27 26 26 26 26 25 24 23 20 18 15 14 12 13 16 16 15 16 13 11 11 10 9 8 8 9 8 8 8 7 5 4 4 4 4 4 3 3 3 3 3 3 2 2 0 1 1 1 2 3 2 1 2 2 4 4 3 3 3 3 5 6 6 8 8 7 8 8 8 9 10 9 9 9 9 10 11
23 22 22 23 24 27 29 29 28 28 27 26 26 26 27 25 24 20 17 16 13 13 18 18 17 17 15 13 12 11 9 7 7 8 8 9 8 8 6 5 5 5 5 4 4 3 3 3 3 3 3 2 2 1 1 1 1 1 2 2 2 2 3 3 3 3 3 3 5 5 7 9 8 7 8 9 9 10 10 9 9 9 10 10 10
24 23 24 23 25 28 30 30 30 29 29 28 27 27 28 27 26 23 20 18 16 15 18 19 18 18 16 14 13 13 11 8 8 8 8 9 9 9 8 6 6 6 6 5 4 4 4 4 4 3 3 2 2 2 1 1 1 1 1 3 3 2 2 2 2 2 3 3 3 5 8 9 8 8 9 10 10 9 9 10 9 9 9 10 10
24 24 25 24 25 27 29 31 31 30 29 29 29 28 28 27 27 25 23 21 19 18 18 18 19 19 17 16 15 15 13 11 10 9 9 9 10 10 9 7 6 6 6 5 5 4 4 4 4 3 3 2 2 2 1 1 1 1 1 2 3 3 2 2 3 3 3 2 3 5 6 7 8 8 9 11 10 8 9 9 9 8 9 11 12
23 24 24 23 24 26 29 31 31 31 30 30 30 29 28 28 28 28 26 24 22 20 19 19 20 20 19 17 16 16 15 14 13 11 10 10 10 11 10 9 8 7 6 6 5 4 3 3 3 3 3 2 2 2 2 2 2 1 1 1 2 2 2 3 3 4 4 4 4 5 6 7 7 6 10 13 11 8 7 8 8 8 10 11 12
Wind_Direction
122 123 128 132 128 128 131 134 133 128 124 121 122 123 123 122 123 122 122 120 115 110 107 103 101 102 103 104 105 106 108 109 110 107 105 102 101 102 103 103 103 107 114 114 113 108 103 100 97 97 96 96 99 98 96 96 97 101 103 102 101 99 97 93 91 89 91 92 91 96 101 103 106 107 106 105 103 100 98 95 91 90 90 93 93
125 125 129 129 129 130 129 130 127 124 121 121 123 124 124 122 122 119 115 110 105 103 101 100 101 103 104 104 105 106 108 109 107 103 100 95 94 96 98 98 93 91 98 105 107 106 100 96 95 97 102 103 101 97 95 95 90 91 96 100 100 97 96 93 91 90 92 94 93 96 100 103 109 110 108 105 103 100 98 95 91 90 92 93 92
127 127 131 130 127 127 127 126 125 125 124 124 125 125 124 121 119 114 110 106 103 102 100 101 102 102 101 102 103 105 106 104 103 100 96 93 93 94 95 99 98 92 88 94 97 97 94 94 97 101 107 104 99 100 103 104 100 96 93 97 99 97 96 95 94 93 94 97 98 98 99 102 107 108 107 106 103 101 97 95 94 93 94 94 91
128 126 129 131 127 126 125 124 124 126 127 127 127 125 123 119 116 111 108 104 102 102 102 102 101 100 99 100 99 100 100 98 98 97 97 95 95 94 92 92 93 92 87 88 85 86 89 95 100 99 100 97 94 98 106 108 106 102 93 94 97 96 96 95 96 96 97 100 98 95 97 102 105 107 110 108 104 102 98 95 95 94 96 95 92
128 127 129 131 128 126 125 125 126 128 128 128 128 124 120 116 110 108 106 103 103 104 103 102 100 99 97 97 97 96 93 93 93 94 96 94 90 88 87 87 87 87 85 83 79 80 84 89 92 94 96 94 95 100 109 109 104 101 92 91 94 95 95 95 96 98 100 101 98 93 95 99 103 107 108 107 104 102 100 97 95 93 95 95 93
128 128 130 132 130 128 128 128 127 128 128 129 128 123 119 114 109 108 107 105 105 104 102 100 98 97 96 95 96 95 93 92 91 90 90 87 83 83 83 84 83 83 81 80 79 78 84 88 89 92 93 92 96 101 106 104 101 99 94 90 91 92 93 94 96 101 103 99 93 91 91 91 97 101 104 106 106 104 101 97 94 93 95 95 93
127 128 131 131 131 132 131 128 128 129 128 130 127 123 118 112 112 112 109 106 104 103 101 98 95 95 93 91 92 93 94 92 89 87 87 85 83 85 86 84 82 85 83 81 84 86 91 95 95 95 92 91 93 98 101 101 99 98 97 96 94 92 93 96 99 102 103 98 91 88 89 90 95 98 102 105 105 105 102 97 94 93 95 96 94
127 129 130 128 128 131 132 129 129 130 129 130 125 120 117 113 114 112 108 107 105 103 101 98 96 94 92 91 91 89 85 83 84 86 87 88 87 85 85 85 87 91 89 84 86 90 92 92 95 97 96 94 92 94 99 101 101 99 100 100 98 99 99 98 101 103 99 96 94 93 94 94 95 99 103 104 103 103 98 95 92 92 96 97 95
131 130 129 128 128 130 131 132 133 133 130 127 120 117 117 115 113 111 110 110 107 103 100 98 95 94 93 92 90 85 80 80 87 91 91 91 90 86 83 86 89 88 86 84 82 79 81 85 88 92 98 102 101 98 98 102 103 103 103 102 101 102 102 102 104 104 98 95 96 96 97 97 97 99 102 101 100 98 95 93 91 92 96 98 95
132 131 130 130 129 129 132 134 133 131 126 120 116 116 115 113 112 113 114 113 110 104 101 96 94 93 92 91 86 83 85 91 96 94 93 92 90 90 90 90 87 82 82 84 83 77 79 85 86 87 92 98 104 103 100 102 105 107 108 107 105 103 103 107 107 102 98 97 95 95 95 95 95 96 96 96 96 95 94 92 92 94 98 98 95
133 130 129 129 129 127 131 132 129 124 117 115 115 115 115 115 116 117 114 112 110 106 103 98 95 92 90 88 86 86 92 101 97 91 91 91 91 93 94 90 85 82 81 83 80 75 76 82 84 84 87 89 95 101 103 106 107 109 110 108 104 104 109 112 107 102 101 99 96 94 91 90 92 93 94 94 94 92 91 89 92 98 100 98 93
130 126 123 125 124 123 128 128 124 117 114 118 119 119 120 121 120 116 113 110 110 108 104 99 95 91 89 85 86 88 90 90 87 89 91 92 93 93 93 87 81 81 78 75 72 70 71 75 77 80 87 89 91 101 109 113 110 107 106 105 104 108 115 114 108 105 103 99 95 92 87 87 91 93 93 93 91 89 88 90 96 101 101 96 90
133 127 124 123 123 126 130 128 125 120 122 127 125 126 125 124 121 116 113 110 109 108 105 100 96 92 89 88 87 86 82 78 77 82 86 86 85 85 86 83 78 77 77 72 69 71 74 77 79 82 88 94 98 105 112 112 108 105 105 107 110 114 117 114 109 105 100 95 93 91 89 89 91 91 91 90 89 89 90 94 99 99 96 91 85
142 138 133 132 134 137 137 134 130 128 130 131 130 129 127 125 120 116 112 108 106 105 104 101 98 95 91 91 91 89 86 85 84 85 86 85 82 82 81 82 79 76 77 73 70 73 77 81 83 86 92 97 101 106 112 110 105 107 112 114 116 119 118 112 108 101 96 94 92 90 89 90 91 91 91 91 91 91 92 95 96 95 92 87 82
146 145 140 139 142 143 142 139 135 134 134 134 134 130 126 123 117 116 111 108 106 103 103 100 98 95 92 91 94 96 97 97 93 89 88 88 87 88 86 84 82 78 76 71 69 72 76 79 82 86 93 98 103 108 111 110 109 113 118 116 115 120 120 112 105 98 95 96 92 88 89 91 94 94 95 96 95 94 94 95 94 93 90 85 80
146 147 143 142 144 143 142 140 138 136 136 136 135 129 125 121 118 115 111 111 109 105 102 100 97 94 91 89 91 95 98 96 91 88 87 88 89 91 90 85 81 75 73 71 70 72 75 77 78 84 92 98 102 103 104 106 113 117 116 110 108 116 118 110 101 96 96 96 92 90 90 94 97 98 99 99 97 97 96 94 91 90 86 84 80
148 148 145 145 145 142 141 141 141 138 137 139 136 130 125 122 120 115 113 113 109 108 104 100 97 92 90 87 88 89 91 92 89 88 84 85 88 89 87 84 81 76 72 73 74 74 76 78 78 80 85 90 93 95 98 104 111 110 108 106 105 111 113 107 100 97 97 96 92 91 93 97 100 100 101 100 99 97 95 92 89 86 83 81 79
149 149 148 147 146 142 140 142 144 141 141 141 134 130 126 123 121 118 115 113 109 109 107 101 97 92 90 89 89 88 87 88 88 87 83 82 85 85 86 85 84 80 76 73 75 78 82 86 86 83 82 84 90 96 99 99 99 98 100 103 105 110 110 103 99 98 96 94 92 92 96 100 101 100 100 99 97 95 93 91 88 87 85 83 80
151 151 149 149 148 143 142 146 146 145 144 138 133 130 127 124 124 122 116 114 112 110 108 103 100 96 94 93 92 90 88 87 88 87 87 87 86 87 89 90 87 83 80 73 71 79 86 88 88 87 86 88 92 95 95 93 90 92 97 100 104 107 105 99 98 98 95 93 92 94 99 100 98 97 97 97 96 94 92 90 90 89 87 88 84
152 153 151 151 152 147 147 149 148 146 142 138 138 133 128 128 126 123 118 115 114 111 110 106 103 99 97 97 94 94 91 89 89 89 91 93 93 92 91 92 89 86 83 75 67 74 82 83 83 84 86 88 90 90 91 90 90 93 94 95 98 100 98 97 98 96 94 94 94 99 102 100 97 94 93 93 92 90 87 85 89 88 86 88 85
155 155 154 155 154 152 150 148 149 149 143 141 142 136 130 130 126 123 121 118 115 112 111 108 104 99 98 99 97 96 94 92 90 90 92 94 94 93 92 92 90 87 86 79 73 75 78 79 81 80 78 79 80 82 82 82 86 92 89 88 91 93 94 96 94 91 93 95 97 103 104 100 97 92 86 83 84 86 80 73 81 85 85 86 84
157 157 158 159 158 156 154 147 149 151 148 147 145 140 136 134 129 126 126 124 120 115 115 111 105 101 100 100 98 96 94 93 91 92 93 93 93 91 92 92 90 88 87 84 83 86 82 79 81 80 78 79 80 82 84 84 85 87 84 83 85 88 91 91 89 89 92 96 100 106 106 100 97 92 81 77 75 77 76 70 73 77 76 79 81
161 161 162 164 163 161 157 149 150 154 151 149 148 143 138 136 132 130 131 128 123 120 120 114 106 102 102 100 99 98 97 97 95 95 95 94 93 93 94 94 92 90 89 84 83 87 84 81 82 82 83 86 88 92 99 99 90 82 76 75 78 82 86 85 86 88 90 93 100 109 108 104 103 95 83 79 74 69 69 64 65 70 70 72 74
167 164 164 167 167 164 159 154 156 158 154 152 151 147 142 138 134 135 133 129 124 122 120 113 108 105 104 104 102 101 100 98 97 97 97 97 93 93 94 94 94 93 92 82 74 76 77 82 83 82 82 80 83 88 93 94 87 78 71 69 69 74 82 85 89 92 92 90 93 105 104 104 107 98 84 76 73 64 55 53 55 62 68 67 62
168 166 166 169 169 165 162 161 162 163 160 156 154 151 149 144 140 138 134 130 128 125 118 114 111 109 108 108 106 104 101 99 99 97 97 98 97 94 93 94 96 96 96 89 81 78 79 84 81 78 76 73 76 79 79 76 73 69 63 62 60 63 73 84 96 101 101 96 92 100 100 103 108 99 89 74 70 61 43 41 46 49 55 58 51
169 171 170 170 171 169 167 165 167 167 164 163 158 155 153 149 147 144 137 133 133 129 122 121 116 115 114 112 110 105 102 101 99 97 96 99 99 97 94 95 96 98 99 94 93 90 86 84 76 72 67 67 70 65 63 59 60 59 53 51 51 54 59 72 94 105 106 104 100 100 99 103 108 100 96 80 67 65 40 24 31 36 38 38 35
172 175 173 171 172 174 173 169 169 170 170 167 162 160 157 153 153 152 146 139 137 132 126 126 122 119 117 117 114 107 103 102 100 97 98 100 101 98 97 97 94 94 96 93 94 91 86 81 72 68 56 56 58 52 50 44 46 51 46 41 42 45 46 56 71 83 98 99 96 48 333 76 127 124 115 87 43 44 34 11 10 14 18 18 14
174 175 174 174 176 178 175 171 173 175 174 172 167 165 162 158 160 158 154 149 142 136 133 131 126 122 120 120 115 109 105 103 103 101 100 104 105 102 101 100 92 87 89 87 88 86 82 75 66 58 40 35 40 44 46 39 35 38 38 31 31 35 35 40 47 58 72 77 80 17 322 271 262 226 208 325 3 359 358 349 347 351 356 357 353
177 177 177 177 178 177 175 174 177 177 176 176 174 171 167 164 164 163 162 158 149 143 141 137 131 128 124 121 115 109 106 105 106 103 104 109 109 108 104 98 90 85 82 79 85 81 70 63 54 45 31 26 30 31 36 38 31 28 27 23 23 26 29 30 33 45 51 55 59 18 20 309 269 254 231 237 277 315 330 331 332 335 337 337 337
180 180 180 180 179 176 175 178 180 180 177 178 178 177 173 170 170 170 167 163 157 151 147 141 136 133 128 123 114 109 107 105 106 102 104 108 107 107 103 95 89 92 86 77 84 76 65 54 44 37 26 23 26 23 24 27 27 23 19 18 17 19 21 20 21 28 32 35 42 25 31 72 163 263 247 241 253 274 299 310 315 321 323 321 318
182 183 184 183 179 175 175 179 182 183 180 180 183 181 179 177 176 175 173 171 164 158 153 147 143 139 134 126 115 111 108 105 106 105 103 103 101 99 95 93 87 93 93 81 79 76 71 55 43 36 26 26 22 16 17 17 20 23 23 19 18 20 16 14 15 16 17 15 24 24 14 35 78 105 220 246 260 271 286 292 295 298 300 302 303
185 186 186 183 178 175 176 180 182 185 184 183 186 184 183 182 180 179 180 177 169 165 162 155 153 151 142 131 119 114 112 108 107 104 101 94 89 88 84 89 87 91 99 86 80 78 76 56 43 33 25 26 20 10 11 13 14 19 28 29 25 24 14 13 15 9 8 5 8 11 353 354 7 18 28 3 323 305 301 300 299 296 291 294 292
186 188 186 183 178 174 177 180 183 187 186 185 188 186 184 184 182 183 185 180 175 175 172 166 163 162 152 139 128 121 116 113 110 104 101 87 60 51 50 66 89 104 121 107 86 71 64 46 29 24 20 19 16 9 9 14 12 16 35 42 32 29 16 13 9 2 4 2 358 355 343 343 345 347 352 350 340 329 322 318 312 306 301 298 294
182 187 188 183 177 175 177 181 185 187 187 187 190 189 186 187 186 186 187 183 182 181 181 178 172 167 163 152 136 126 121 117 116 108 97 67 21 359 351 350 193 162 154 138 98 56 45 30 14 13 13 12 8 1 3 6 4 15 43 49 35 29 20 10 360 358 359 357 355 351 343 338 338 335 334 332 330 326 319 315 312 306 300 296 294
179 183 187 183 178 177 178 180 185 187 188 190 191 192 191 190 189 190 188 186 186 186 186 188 183 177 172 164 151 141 136 123 111 102 76 44 14 358 350 313 225 191 184 167 110 58 24 13 7 7 8 7 357 351 352 350 351 13 49 40 26 15 11 357 348 351 348 352 353 349 344 336 332 326 324 320 318 320 318 314 311 310 305 300 296
183 183 184 182 181 181 180 179 183 185 187 190 191 193 194 195 196 194 193 191 190 191 192 193 194 192 188 187 176 166 167 148 121 97 55 29 1 351 346 302 235 199 207 185 106 40 19 5 359 8 9 1 350 350 348 346 355 28 35 4 338 339 344 336 336 334 326 333 337 335 341 342 335 329 327 321 317 318 319 318 316 316 315 313 309
187 187 187 186 184 186 186 182 183 186 187 188 190 193 196 200 203 202 200 198 196 197 198 200 203 205 204 200 192 189 193 187 181 188 6 350 343 340 328 298 247 209 219 221 339 354 14 8 359 7 12 356 345 352 353 358 17 39 354 322 313 316 316 318 320 315 317 325 324 319 324 329 329 331 329 321 318 321 323 324 323 320 321 321 321
188 190 193 193 188 189 191 189 187 188 188 189 189 194 200 205 210 213 211 208 205 203 204 206 209 211 210 204 199 206 212 211 221 233 266 300 320 320 297 271 236 209 222 261 291 312 3 19 17 3 360 351 338 347 358 11 29 30 354 321 314 314 311 314 313 312 316 319 319 317 317 319 319 321 323 319 317 322 328 330 330 330 330 330 331
190 190 192 195 192 191 194 195 195 194 192 192 190 193 201 208 214 218 218 216 213 209 209 211 212 213 212 208 206 215 226 228 234 241 253 271 286 289 266 239 223 226 253 281 283 349 19 33 32 12 355 338 322 345 358 13 25 30 19 345 327 326 320 316 315 316 319 316 315 318 318 322 326 324 324 325 321 322 328 330 331 333 336 339 340
190 188 189 193 194 193 195 198 201 199 195 192 191 194 198 204 210 213 216 217 216 215 214 213 215 216 213 212 213 219 229 235 238 240 242 249 251 249 243 230 227 240 271 347 146 154 43 41 37 29 6 332 307 334 343 358 14 18 23 7 341 335 328 324 321 320 322 319 319 326 325 323 331 335 333 329 325 325 328 331 333 334 337 343 347
190 188 187 191 195 195 196 197 201 202 199 193 190 192 194 197 202 206 210 213 215 216 215 215 217 217 215 215 220 225 231 240 241 235 234 235 232 230 233 232 234 245 256 240 195 195 106 54 37 29 21 4 330 318 317 324 333 336 354 352 335 323 316 319 317 312 312 311 318 332 337 331 331 337 338 336 335 333 333 333 335 336 339 342 346
189 190 191 191 193 195 197 198 200 203 204 201 195 191 192 195 196 200 204 207 213 215 215 215 215 217 218 218 225 232 238 245 240 232 230 230 225 224 231 234 238 246 248 236 210 207 212 46 31 22 19 16 8 340 310 291 312 329 337 338 343 340 327 327 321 309 306 309 317 326 334 334 328 330 335 339 341 340 337 335 335 337 338 340 342
191 193 194 192 191 193 195 199 202 204 205 207 205 199 196 196 196 201 204 207 214 215 215 217 216 219 222 225 231 238 246 247 240 233 231 228 224 224 234 239 242 249 254 245 227 225 245 315 9 18 15 7 24 68 93 54 336 330 333 341 355 1 33 15 350 334 308 307 320 323 327 332 331 335 341 343 343 341 338 335 334 335 335 337 339
193 194 195 192 191 193 196 201 205 205 206 210 211 208 206 205 206 213 216 217 220 219 219 221 220 222 228 233 238 244 251 247 239 236 233 233 230 227 238 245 252 260 257 252 245 244 253 266 311 21 359 6 63 88 92 52 19 16 348 347 347 355 41 12 356 3 353 320 320 326 328 331 333 339 342 340 338 338 341 342 341 339 337 336 336
193 194 194 193 194 196 200 204 206 207 209 212 211 210 210 207 205 212 217 216 216 216 215 219 222 224 229 237 243 250 252 243 239 240 238 240 238 235 243 247 251 256 254 255 255 252 247 239 209 176 342 7 66 98 110 39 17 9 347 347 347 3 23 358 352 17 13 359 353 339 337 337 333 336 342 344 347 351 355 356 356 351 346 343 340
195 196 195 196 198 199 202 205 206 208 210 212 211 209 208 204 197 199 203 204 203 205 206 208 214 219 223 233 243 251 246 238 241 243 242 244 243 241 245 245 241 240 245 254 255 251 242 228 208 174 177 293 46 50 325 357 357 354 349 4 349 344 345 344 349 4 6 22 21 8 9 360 346 343 354 4 9 12 15 11 6 1 356 352 347
196 196 196 198 199 200 205 205 206 208 209 210 210 208 206 205 204 201 201 202 202 206 210 208 212 217 221 232 243 246 237 231 237 241 241 242 243 242 246 243 232 227 233 246 249 245 230 217 207 185 189 209 167 42 342 331 350 7 21 6 326 316 319 330 344 351 359 13 9 17 24 11 5 4 10 17 16 18 24 22 15 10 4 359 353
196 193 194 196 198 203 207 207 207 209 209 209 209 208 207 206 207 206 206 209 208 213 217 215 216 220 224 233 241 240 232 222 229 237 237 238 239 239 243 242 226 221 226 237 242 231 217 212 207 196 201 212 216 254 338 333 329 25 37 6 340 332 340 345 345 347 348 343 356 12 9 8 22 26 19 17 13 17 23 22 18 14 9 4 358
196 192 194 195 198 204 208 208 208 210 210 211 210 210 210 209 208 207 209 212 213 217 219 219 219 222 226 231 237 239 234 228 228 232 232 236 236 233 239 240 225 222 227 234 236 226 215 210 209 202 202 216 234 248 286 319 322 3 22 9 360 352 12 30 16 7 4 347 350 358 357 1 12 18 16 9 6 13 19 18 19 18 15 12 7
196 193 194 195 196 200 205 207 208 209 210 211 211 210 211 210 210 210 211 214 216 219 219 219 221 224 227 231 236 238 237 237 235 234 232 234 233 230 236 236 226 223 228 233 231 227 221 212 210 207 207 221 237 250 269 274 302 354 17 8 2 2 17 20 13 16 11 354 335 339 356 359 354 1 5 3 5 8 9 18 30 32 27 22 17
195 193 192 194 194 196 201 205 208 209 210 211 211 210 210 211 212 213 215 216 218 218 217 218 221 224 227 230 235 237 238 240 240 240 238 237 234 230 231 232 227 223 226 233 230 224 222 216 216 218 223 242 247 252 263 255 256 271 303 341 350 6 15 2 2 8 3 2 343 336 355 356 345 349 356 1 9 6 10 34 51 46 34 28 22